Wind_Speed
29 30 30 29 28 27 26 24 23 21 20 18 16 16 14 14 13 12 12 12 10 8 7 5 3 2 2 3 4 4 5 4 4 5 8 9 12 15 16 16 16 17 18 19 20 21 19 17 14 13 14 15 14 18 16 12 17 19 14 7 3 1 1 2 4 3 1 2 2 1 1 1 3 3 3 4 5 6 7 7 8 8 8 8 11 14 15 15
28 30 31 31 30 29 28 27 25 23 22 20 18 17 16 15 15 14 13 13 12 10 9 7 5 3 2 2 3 4 5 4 3 4 6 8 11 15 16 17 17 17 18 19 20 21 20 19 17 14 13 13 12 12 9 6 10 15 8 2 5 6 3 4 2 2 1 3 1 1 1 1 2 2 2 3 5 6 6 7 7 7 8 9 11 13 13 14
27 28 30 32 32 31 30 29 28 26 24 22 21 19 17 17 16 15 14 14 14 12 11 8 7 4 3 2 2 3 4 4 3 3 5 7 10 14 17 18 18 18 18 18 19 20 21 21 20 16 12 11 8 4 7 7 8 10 5 3 2 5 3 5 3 1 1 2 1 0 1 1 3 3 3 5 4 6 6 5 6 4 6 8 10 12 12 14
27 28 29 31 32 33 32 31 30 28 27 25 23 21 20 18 17 17 15 15 14 14 12 10 9 7 4 3 2 2 4 4 4 3 4 6 8 13 16 18 19 19 18 17 17 18 20 20 20 16 10 13 9 2 9 12 9 4 2 5 5 4 1 3 4 1 2 1 1 1 1 2 3 4 3 5 3 5 6 5 5 4 6 8 9 10 11 12
28 28 29 30 32 33 34 33 32 31 29 28 26 24 22 21 19 18 17 16 15 15 14 12 11 9 7 4 2 2 3 3 4 3 3 5 8 11 15 18 20 21 19 18 17 18 21 17 17 13 7 16 9 5 7 4 8 1 6 5 5 4 2 2 4 3 3 2 0 1 2 1 1 3 2 3 4 5 6 5 5 5 7 8 8 8 9 10
29 28 29 29 31 32 34 35 34 33 32 30 29 27 25 23 21 20 19 18 16 16 15 14 12 11 9 6 4 2 1 2 3 3 3 4 7 10 14 18 20 22 20 19 18 19 20 16 18 20 18 16 4 4 6 3 5 2 9 5 5 4 4 2 4 4 2 1 1 1 2 2 0 0 1 2 4 7 8 6 6 5 7 9 8 8 8 9
30 30 29 29 30 32 33 35 36 35 34 32 31 30 27 26 24 22 20 19 18 17 16 16 15 13 11 9 6 4 3 1 2 3 3 4 6 9 14 17 20 21 21 20 20 19 19 18 19 24 27 14 1 4 5 5 3 4 6 5 5 4 3 3 4 3 2 1 1 1 2 2 1 1 3 3 3 7 8 6 5 5 6 7 8 8 7 8
31 31 31 30 30 31 32 34 36 36 36 35 34 32 30 29 27 25 22 21 20 19 18 17 16 15 13 11 8 6 6 3 1 3 2 4 6 9 13 17 20 21 22 22 21 20 19 20 17 22 26 10 6 5 15 9 2 8 5 5 4 4 4 6 5 3 2 0 2 2 2 2 1 2 2 4 4 7 7 7 6 5 5 6 6 7 7 7
30 32 32 32 31 31 32 33 35 36 37 37 36 35 33 31 30 28 25 23 22 21 20 18 18 16 15 13 10 9 8 5 1 2 2 4 6 9 12 17 20 21 23 22 21 21 19 19 18 20 19 8 7 9 15 9 7 14 4 5 4 5 4 6 5 4 3 2 3 2 1 1 1 2 1 4 5 7 7 7 7 6 5 5 5 5 5 6
27 30 32 33 32 32 32 33 34 36 37 38 37 37 35 33 32 30 28 25 24 23 22 20 19 18 17 15 13 10 9 7 4 1 1 3 6 8 11 16 20 21 22 22 21 20 20 19 17 12 13 5 9 11 5 10 10 15 7 4 5 5 5 6 4 4 4 3 3 1 2 1 1 1 2 5 6 7 7 7 7 6 6 5 5 5 5 5
22 27 31 33 34 33 32 32 33 35 36 38 38 38 37 36 34 32 31 28 26 25 24 22 20 20 19 17 15 11 9 8 6 3 1 2 5 8 11 14 18 21 22 23 23 22 22 18 10 7 10 7 9 9 5 7 9 12 11 6 5 5 4 5 3 3 3 3 4 2 1 2 2 2 2 3 5 6 6 7 7 7 6 6 6 6 5 6
18 22 27 31 34 34 34 33 33 34 35 37 38 38 38 38 36 34 33 31 29 27 26 24 22 21 20 19 16 13 13 10 9 6 2 2 5 7 10 13 18 20 22 23 23 22 18 16 15 16 14 11 10 8 5 7 8 12 12 8 5 4 4 4 2 1 1 2 3 3 2 2 1 2 2 1 4 6 6 6 6 6 6 6 7 6 6 6
19 19 22 28 32 34 35 35 34 33 34 36 37 38 39 39 37 36 35 33 31 29 28 27 24 22 22 21 18 16 16 13 11 9 4 3 4 7 9 12 16 19 22 23 22 19 13 13 23 27 22 17 14 11 8 8 15 15 9 7 6 5 4 2 2 1 1 2 3 3 3 2 1 2 3 2 2 3 6 6 5 6 6 7 7 6 7 7
21 20 20 23 29 33 35 36 36 35 34 34 36 38 39 39 39 37 36 34 33 32 30 29 27 25 23 22 20 20 18 14 13 11 7 5 4 7 9 10 15 19 21 21 21 18 13 13 16 22 25 23 9 14 8 11 15 11 10 10 7 5 4 2 1 2 2 2 4 4 3 1 0 2 3 3 2 2 6 6 6 6 6 7 7 7 7 6
22 22 21 21 25 31 34 36 37 36 35 34 34 36 38 40 40 38 37 36 35 34 32 31 29 26 25 23 24 24 20 16 15 13 10 7 6 8 9 11 13 16 18 18 18 20 18 13 10 18 27 27 11 19 11 14 13 10 11 12 10 9 8 3 1 2 4 2 3 3 4 3 2 1 2 4 5 2 4 5 6 6 5 6 7 6 6 6
24 23 22 21 22 27 32 35 36 37 36 35 34 34 36 39 40 39 38 36 36 36 33 32 30 29 27 24 25 25 22 19 17 15 13 9 7 9 10 12 14 15 17 18 17 18 21 16 13 19 25 26 19 14 13 14 11 12 11 9 10 12 11 7 4 4 5 2 2 3 5 6 4 2 2 5 6 5 4 2 6 6 5 7 6 6 7 7
24 24 24 22 22 23 29 34 36 37 37 36 35 34 34 37 40 40 39 37 37 37 35 34 32 31 28 25 27 28 24 22 19 17 15 12 10 10 10 11 14 15 17 17 16 17 21 19 17 19 21 24 22 23 18 16 8 11 8 8 11 10 10 10 7 7 6 3 4 3 4 6 4 5 5 5 5 4 5 3 5 3 4 7 6 6 7 8
24 24 24 24 23 22 26 31 35 37 37 37 36 34 34 35 38 41 40 39 38 38 37 35 33 33 31 31 32 31 28 25 22 19 17 15 12 11 11 12 14 16 17 18 18 19 21 18 17 19 18 20 22 24 22 18 11 11 5 6 11 9 8 11 10 9 6 5 6 5 5 7 6 7 7 6 6 5 5 4 3 2 3 5 5 6 8 9
25 25 24 24 24 22 24 29 33 36 37 37 36 35 35 35 37 40 41 40 39 39 39 37 36 35 32 31 32 31 30 27 24 22 20 17 15 14 13 13 15 17 17 19 21 22 22 19 16 18 18 19 21 22 20 15 11 9 4 6 13 9 9 13 10 8 7 5 6 6 7 9 8 7 8 8 8 7 6 5 2 1 1 2 3 5 7 7
26 26 25 24 24 23 23 26 31 35 36 37 36 35 36 35 36 40 40 39 39 40 40 38 37 35 33 32 33 33 32 30 27 25 22 20 18 17 15 14 16 18 17 19 22 22 23 21 16 16 18 19 20 20 19 15 10 5 4 14 16 10 12 14 8 10 10 5 6 9 10 11 10 8 9 9 9 9 8 7 4 3 2 1 1 2 4 5
27 26 26 25 24 23 23 24 29 33 35 36 36 35 36 36 37 39 38 37 40 41 40 39 38 37 37 37 37 36 33 31 30 27 24 23 21 20 17 16 16 17 17 19 22 22 22 21 17 15 16 15 18 20 19 19 13 8 9 15 17 12 12 13 11 12 11 6 9 12 13 14 12 10 10 9 9 10 9 9 7 5 4 3 3 2 1 3
28 27 26 26 24 23 23 23 27 31 34 36 35 35 36 36 37 38 36 37 41 41 40 40 38 39 39 38 38 35 32 33 32 29 27 25 23 21 19 18 17 16 18 20 22 23 21 20 18 17 16 13 15 18 19 19 17 17 16 15 17 15 12 13 11 10 9 8 11 14 14 15 15 12 11 11 11 12 11 11 10 8 6 5 5 4 4 3
28 28 27 26 25 24 23 23 25 29 33 34 35 35 36 36 37 38 36 37 40 41 42 40 39 40 39 38 38 33 32 35 34 31 30 27 24 23 21 19 18 18 19 20 20 20 19 19 19 17 19 17 16 20 23 21 20 24 21 13 16 16 13 18 16 12 11 9 11 15 14 13 16 14 13 13 12 12 13 12 12 10 9 8 6 6 5 5
29 28 28 27 26 25 23 22 23 28 31 33 35 35 35 35 36 37 37 37 39 40 41 40 40 40 38 38 37 33 34 37 36 34 32 29 27 25 23 22 21 20 20 19 18 18 16 19 21 17 19 21 19 20 23 20 19 25 29 19 13 13 17 25 23 20 14 11 12 15 13 13 17 17 15 16 15 14 14 13 14 13 11 10 8 8 7 6
29 28 28 27 26 26 25 22 22 27 30 32 34 34 35 34 34 37 36 36 37 37 37 39 40 39 38 38 37 36 37 38 37 36 33 30 29 27 25 24 23 22 21 19 19 18 16 18 22 21 19 20 21 18 19 19 17 20 25 24 13 12 16 20 23 20 16 19 18 15 14 14 17 17 16 18 16 15 16 14 14 14 13 13 11 10 9 7
30 29 29 28 26 27 26 22 22 26 30 32 33 33 34 32 34 36 34 35 35 34 37 39 37 37 37 37 36 37 39 39 38 37 35 33 32 29 27 26 24 23 22 20 20 19 16 16 19 22 21 19 23 21 22 25 20 16 17 19 20 16 12 11 20 26 21 19 18 15 15 17 18 18 18 20 17 15 18 16 15 15 15 15 14 13 12 10
31 29 29 28 27 26 26 23 22 26 29 30 30 31 31 31 33 34 33 33 32 33 37 38 36 35 34 35 37 38 39 39 38 38 37 36 33 31 30 28 26 25 24 21 22 21 20 19 24 22 23 19 23 25 24 26 22 16 16 15 19 24 16 13 22 30 23 14 14 18 22 22 20 18 17 20 20 19 20 18 17 17 16 16 16 16 15 13
31 30 29 29 27 25 26 24 22 25 27 27 29 30 30 30 31 32 31 30 30 34 36 35 35 33 33 38 40 38 38 38 38 39 37 35 35 33 31 30 28 25 25 24 23 21 23 26 26 21 24 21 27 26 23 23 21 16 18 18 19 23 26 20 18 20 21 15 13 18 23 21 18 19 19 19 21 21 21 20 20 19 17 16 17 18 17 16
32 31 29 29 28 25 26 25 23 25 26 26 28 29 29 29 30 31 31 29 28 31 35 34 32 29 33 40 39 36 38 38 39 39 37 36 37 35 32 30 28 25 25 24 23 22 23 25 20 19 21 23 28 26 22 23 21 15 20 20 13 15 20 23 22 18 17 19 18 17 21 21 19 22 26 24 21 18 19 23 22 21 20 18 18 19 18 18
33 31 29 29 28 26 25 25 24 24 25 26 27 28 29 29 29 29 31 31 26 25 31 33 31 29 32 35 34 35 38 38 40 40 39 38 37 37 35 32 31 28 26 25 26 24 22 22 22 24 26 27 29 26 24 24 21 15 16 16 12 15 23 27 30 23 19 24 23 17 19 24 22 24 26 23 19 17 18 21 22 21 22 21 18 19 19 19
33 32 29 29 29 26 25 26 24 23 25 26 26 28 29 29 29 29 30 29 25 26 31 30 31 33 33 30 29 33 38 39 40 42 42 41 39 39 38 36 35 32 30 29 28 24 17 19 24 26 29 30 27 24 22 19 16 17 19 16 18 21 25 22 25 24 22 23 21 16 18 24 24 23 21 18 19 21 19 18 21 22 22 21 19 19 20 19
34 33 30 29 29 26 26 26 24 24 26 27 27 28 29 29 31 31 28 23 22 29 30 26 31 35 32 31 28 30 36 38 39 43 45 42 41 41 39 38 36 34 34 30 26 24 18 21 29 26 28 29 23 21 20 19 17 23 21 18 21 22 19 15 18 22 22 20 18 15 18 24 24 22 20 15 16 21 20 20 24 25 24 22 19 19 20 19
35 33 30 29 28 27 28 27 25 26 27 28 29 29 30 32 33 30 24 20 19 22 23 22 29 33 32 32 30 29 34 36 38 44 45 42 41 40 38 38 36 34 33 30 27 26 25 28 34 29 28 28 23 21 21 24 27 30 26 22 22 20 18 18 17 18 19 18 16 14 16 22 22 21 20 15 15 22 24 24 25 24 22 20 19 21 22 22
36 34 31 29 28 28 29 27 26 27 27 29 30 31 32 34 33 26 23 23 15 10 12 17 23 28 31 32 31 31 32 33 37 41 42 42 42 41 39 39 36 32 29 26 27 28 28 32 33 26 27 30 27 26 24 27 30 32 29 21 16 19 21 19 16 14 14 14 14 14 17 19 17 20 22 13 13 23 21 16 18 19 18 19 22 25 24 23
36 34 31 29 28 29 29 28 28 29 29 30 31 33 35 34 29 24 24 26 17 7 11 15 18 24 28 30 31 33 32 30 33 38 40 41 42 42 41 39 36 34 30 24 24 27 25 26 25 22 26 31 28 28 22 25 26 27 25 21 17 20 20 18 15 14 13 14 15 16 18 19 17 21 24 18 20 24 17 12 20 27 25 25 27 27 24 22
36 34 32 30 28 29 30 29 30 30 30 31 33 35 35 31 26 23 22 22 19 16 18 18 18 21 24 27 29 30 30 27 28 36 39 41 42 41 41 39 37 36 35 26 24 26 21 20 23 22 25 29 28 30 27 23 24 22 22 19 20 18 19 19 17 16 17 16 17 18 17 18 18 17 19 19 24 27 24 23 29 33 31 29 28 27 25 24
36 35 32 30 29 29 31 30 30 31 31 33 35 35 32 28 26 24 22 19 18 24 23 19 22 22 22 26 28 29 29 28 28 34 35 37 42 41 40 39 36 38 37 28 22 23 18 16 23 26 20 23 25 27 27 22 22 21 20 13 15 19 22 22 18 18 20 17 17 18 16 17 18 17 19 22 24 26 26 24 27 31 29 25 27 28 26 25
37 35 33 31 30 30 31 31 31 31 32 35 35 33 30 27 26 26 28 20 15 23 25 19 24 24 22 25 27 28 30 30 29 31 31 33 39 39 40 39 36 38 38 30 22 20 17 15 22 30 23 19 24 26 28 24 24 23 15 10 13 18 21 23 22 21 21 18 17 16 16 18 19 21 26 28 26 26 25 23 23 25 26 23 25 28 27 26
37 35 34 33 31 30 32 32 32 32 34 36 34 30 27 26 26 29 33 24 16 25 28 20 21 23 22 25 25 25 31 32 30 29 30 31 35 36 38 38 36 36 34 32 31 24 20 18 21 30 25 16 22 27 28 28 28 28 23 17 18 19 18 22 26 25 20 17 16 14 14 18 20 24 27 28 27 25 25 22 18 17 22 24 24 25 28 28
37 36 36 34 31 30 33 34 33 33 35 34 31 27 25 25 26 29 34 26 16 26 31 23 20 21 21 25 25 24 30 33 29 28 31 30 31 33 34 34 33 34 34 36 35 28 23 23 22 27 28 21 24 28 26 27 27 28 30 24 18 17 17 19 23 22 17 15 15 13 12 18 22 24 27 29 29 28 26 25 24 23 25 26 24 23 27 28
37 36 37 35 31 31 34 35 34 33 33 31 29 27 26 28 29 30 35 26 16 25 34 29 26 23 20 25 27 26 29 31 29 28 30 30 29 30 32 33 32 30 33 40 38 28 22 22 23 25 28 26 26 29 26 25 24 23 27 26 19 16 17 18 19 19 16 16 17 13 10 20 25 24 28 31 30 30 29 28 30 32 28 26 26 24 25 26
37 38 39 36 32 32 34 35 34 32 31 29 27 27 28 30 31 35 37 27 19 26 33 33 33 28 25 29 30 29 29 31 31 30 29 28 28 27 27 30 32 29 31 39 39 30 23 21 23 26 25 20 23 28 28 26 28 24 27 27 23 20 20 19 18 19 19 16 15 13 13 21 26 25 29 31 29 30 32 29 31 35 32 27 26 25 24 24
38 39 40 36 33 33 34 35 34 32 30 28 26 27 29 31 33 38 38 27 22 24 27 32 37 34 32 36 34 31 29 31 32 31 29 27 28 27 23 26 30 30 28 34 34 30 28 26 25 27 24 16 21 28 27 25 30 29 28 30 26 22 21 20 20 20 19 15 15 17 19 24 29 28 30 32 26 27 33 32 31 34 33 27 25 25 26 25
39 39 39 36 33 33 34 34 33 31 29 27 27 28 30 33 34 37 38 31 27 26 23 29 38 37 34 38 40 36 30 32 32 30 28 28 29 27 23 24 28 30 28 31 33 32 32 31 28 28 27 22 25 29 25 25 29 32 30 29 27 22 20 21 23 24 22 20 20 20 21 27 32 31 32 32 26 26 34 35 30 30 30 27 26 26 26 26
39 40 39 37 34 34 35 33 32 31 29 27 28 28 30 33 33 35 40 39 36 32 23 23 33 37 35 37 43 41 34 35 33 27 27 30 28 26 26 28 29 32 33 34 35 35 35 34 31 31 32 31 30 29 24 22 27 27 27 27 26 24 23 22 22 24 25 24 24 22 23 30 34 32 33 33 29 28 32 34 32 30 27 24 25 26 27 26
39 39 38 36 35 35 35 33 32 32 32 31 30 29 29 30 29 34 42 44 40 36 29 22 26 35 39 40 44 43 38 42 38 24 23 29 29 27 29 31 29 30 37 39 37 34 33 35 35 34 34 33 29 25 21 20 25 27 24 30 30 27 27 26 25 26 27 27 27 25 24 28 30 30 31 31 30 29 30 33 35 31 26 24 23 23 25 28
39 39 37 35 36 38 36 34 33 34 34 34 32 32 32 30 27 32 41 43 40 38 34 27 23 28 35 37 39 42 43 46 43 28 21 28 30 27 28 30 29 30 37 41 38 34 33 34 34 33 33 31 31 27 22 21 26 28 25 27 31 29 27 28 29 29 29 30 29 26 27 28 27 29 30 30 29 28 28 28 26 25 26 27 26 24 24 27
40 41 40 37 37 39 39 36 34 35 35 35 33 33 34 33 32 32 34 36 39 40 37 34 30 30 32 29 31 39 45 46 45 32 21 25 30 28 28 31 33 34 37 38 36 36 38 34 28 28 33 33 33 35 30 23 24 27 25 25 28 29 28 29 30 29 30 33 33 30 30 31 29 28 28 26 24 25 27 24 19 21 26 28 29 29 27 27
41 42 41 39 36 37 39 38 38 38 37 37 36 34 34 35 35 34 29 27 33 37 39 39 36 37 36 27 29 40 46 48 49 39 28 29 34 33 33 36 39 38 37 37 33 35 40 36 28 31 36 33 30 31 33 26 24 27 27 25 26 28 28 30 31 30 30 33 34 33 34 36 34 33 32 29 25 27 29 26 22 25 29 28 29 31 31 31
42 40 38 40 38 34 35 37 39 39 37 37 39 36 35 35 32 30 28 25 27 33 39 41 38 39 39 31 28 37 44 48 51 46 40 39 40 41 39 38 40 39 38 39 36 32 37 39 35 34 33 28 25 28 33 33 29 30 30 26 25 27 29 30 30 30 30 30 32 34 36 38 37 36 35 34 31 33 33 28 26 29 30 28 27 30 33 35
42 40 37 40 41 36 37 39 39 39 38 39 43 41 38 35 31 30 30 28 29 32 35 37 40 44 43 36 31 35 42 50 51 49 47 46 44 44 41 38 40 39 36 37 36 32 34 38 39 36 31 31 31 30 31 32 30 31 30 27 26 29 31 30 29 29 30 32 36 39 40 39 37 35 36 35 34 36 35 30 29 30 29 28 29 29 32 35
41 40 37 39 41 39 39 40 40 39 38 38 41 42 37 33 34 36 35 33 35 35 34 37 44 47 46 44 41 39 44 51 51 49 48 46 46 43 39 38 41 40 34 33 34 35 35 37 40 38 33 35 37 30 24 27 33 34 30 27 33 38 35 30 28 28 31 36 38 37 37 39 39 40 41 39 36 36 34 32 31 31 31 32 32 30 30 32
Wind_Direction
234 233 231 228 226 224 223 222 222 221 222 224 223 222 221 222 221 219 214 212 212 211 216 221 246 287 6 29 44 40 48 65 100 139 167 168 164 160 154 150 146 148 150 156 162 164 166 163 160 151 131 124 115 103 97 76 74 74 65 73 122 152 89 209 262 275 298 347 19 43 44 102 128 145 125 115 120 114 109 104 102 104 108 108 104 99 96 94
238 235 233 232 229 227 225 224 223 221 222 223 224 223 222 223 222 222 217 213 212 211 212 213 226 248 306 6 34 32 39 50 83 138 168 173 167 159 159 153 147 149 151 155 159 163 165 163 162 149 134 125 109 101 95 53 55 76 88 108 140 169 176 156 239 302 277 304 352 326 292 181 204 199 146 126 135 130 121 111 112 111 111 109 103 100 97 94
244 240 236 234 232 230 227 225 224 223 222 222 223 222 222 224 224 223 220 216 213 211 211 211 215 227 260 318 14 24 27 37 61 110 157 170 166 159 162 156 152 152 152 158 157 163 166 161 157 152 149 130 112 83 70 72 51 57 87 264 221 177 185 138 142 239 215 287 7 322 286 224 241 235 169 160 163 143 136 126 121 114 106 106 102 101 99 96
248 246 241 237 234 232 230 228 225 224 223 223 223 222 221 223 225 224 222 221 216 213 212 210 210 216 233 272 331 7 12 26 47 71 138 166 167 161 164 160 157 152 153 159 156 160 160 156 150 153 160 119 92 69 97 89 74 42 180 194 210 154 143 176 163 203 180 160 16 11 298 241 242 246 185 162 184 149 143 142 130 123 112 107 102 102 100 98
247 248 247 242 238 234 232 230 228 226 224 224 224 223 221 221 223 223 223 223 220 216 213 211 209 210 220 241 272 329 6 33 43 56 130 159 165 163 165 163 160 154 156 155 156 156 150 157 144 126 117 111 91 65 110 83 75 319 259 167 169 143 137 189 148 158 164 161 358 23 312 270 237 252 209 148 187 157 142 149 144 140 122 112 107 106 105 103
246 246 247 247 244 239 235 232 230 228 226 225 225 224 221 220 222 222 222 223 223 221 216 213 210 208 213 222 241 270 322 36 36 48 111 148 159 165 164 165 163 157 157 153 155 156 151 160 137 107 89 103 123 103 135 249 101 228 268 183 167 168 170 164 141 157 159 150 116 22 318 297 293 182 130 149 173 142 131 145 149 145 125 120 120 115 112 111
249 246 245 246 247 244 240 235 232 230 228 227 226 225 223 221 221 222 222 221 223 224 220 216 211 209 209 213 225 241 255 287 20 44 99 146 155 165 164 165 167 160 159 155 154 160 157 157 143 112 93 90 108 133 204 261 114 216 242 177 177 168 167 139 137 144 140 158 19 348 344 337 336 57 115 126 126 115 124 143 144 141 125 121 124 123 122 120
252 249 246 244 244 246 244 240 235 232 230 229 228 227 224 222 221 221 220 220 222 223 223 220 214 210 209 211 217 229 244 245 346 30 91 143 152 162 165 166 169 165 162 159 157 162 157 154 147 106 96 114 137 161 242 244 225 244 187 165 190 147 151 129 125 117 106 59 32 23 28 26 12 16 87 113 109 108 124 141 137 138 129 119 119 119 121 120
253 251 248 246 243 243 244 244 241 236 232 230 229 228 227 224 222 221 220 219 220 222 224 222 217 212 209 211 214 224 235 235 256 13 69 143 156 163 167 169 170 170 166 164 163 158 155 150 130 104 108 148 195 221 234 185 224 260 220 181 175 132 144 123 111 98 81 43 33 30 57 67 78 56 92 124 122 120 129 138 131 129 122 117 112 107 109 108
258 252 249 248 245 243 242 242 243 241 236 232 229 229 229 227 224 222 220 219 219 221 223 223 219 213 210 211 212 219 222 225 242 313 44 148 161 164 170 175 174 175 172 166 163 159 160 141 108 116 132 137 239 233 190 147 218 248 232 208 165 146 143 117 105 95 75 41 26 20 126 181 260 67 111 130 126 124 129 129 123 121 116 119 114 99 99 102
268 257 250 248 246 245 242 240 241 242 241 236 232 229 229 229 226 224 222 219 219 220 222 222 221 215 212 212 211 216 218 221 236 248 311 168 166 168 170 178 179 177 176 170 169 173 168 142 112 171 143 114 193 179 139 182 228 242 232 220 167 149 133 116 112 96 68 47 22 345 160 187 272 360 59 125 130 123 119 117 115 116 118 118 112 103 99 105
283 266 254 249 246 245 244 242 239 239 241 240 236 231 229 229 228 226 224 221 219 220 222 221 221 217 212 212 209 212 217 216 225 230 243 213 176 176 174 177 182 180 179 176 177 187 183 156 147 153 131 105 142 170 236 219 222 236 225 205 178 149 134 117 115 112 43 25 1 324 244 210 266 333 342 108 121 121 112 105 103 105 108 102 100 105 105 109
291 281 264 252 247 245 244 243 241 238 238 239 238 235 231 230 229 228 226 222 220 220 221 221 220 218 214 212 208 212 217 210 213 219 222 228 185 181 181 176 182 183 183 183 182 191 202 173 146 144 149 135 147 197 206 191 215 220 202 188 178 146 153 129 123 229 270 309 329 323 263 242 252 303 314 360 53 126 116 100 91 91 90 89 89 96 101 105
291 288 278 260 249 245 244 243 242 241 238 237 237 236 234 232 230 229 227 224 222 220 220 220 219 218 215 210 207 214 218 210 211 214 211 221 201 186 186 179 182 184 188 190 184 180 195 199 157 148 146 127 167 232 170 175 213 196 173 184 175 161 190 168 132 258 258 278 328 326 291 288 297 276 291 314 298 169 126 107 90 90 86 85 85 83 92 100
290 289 285 273 256 246 243 242 242 241 240 238 235 234 234 233 232 230 228 225 223 222 220 220 219 217 215 208 208 215 213 210 212 214 212 212 205 194 188 184 183 184 189 190 185 179 185 199 172 155 134 120 199 242 190 190 203 186 188 181 180 194 200 214 265 257 242 257 331 296 273 300 328 278 257 280 292 331 113 122 97 92 89 82 78 75 77 80
288 288 286 282 268 251 244 242 241 241 241 241 238 234 232 232 233 231 229 226 223 222 220 220 219 217 215 208 212 218 212 209 209 211 214 211 206 202 194 189 184 184 187 189 194 190 183 182 178 173 150 143 177 185 180 209 188 188 204 176 195 206 198 227 270 261 234 243 294 245 255 279 303 311 265 280 300 337 1 93 99 94 91 80 69 68 69 59
285 286 286 284 277 262 248 242 240 240 240 241 241 237 231 229 231 232 230 227 224 222 221 220 218 217 214 207 213 216 211 210 208 208 212 212 211 207 202 194 186 187 187 190 199 195 186 183 186 183 165 166 165 146 182 230 196 200 215 168 206 215 195 215 241 260 241 233 273 247 257 274 300 321 302 289 293 306 322 21 95 114 92 78 63 55 54 50
282 283 284 284 281 271 256 244 240 240 240 240 241 240 235 229 228 230 230 228 225 223 221 220 218 217 213 209 213 212 209 210 208 208 211 212 212 207 206 197 187 190 188 188 192 192 192 189 189 187 171 176 171 150 177 211 212 241 264 157 213 225 196 206 224 253 247 232 267 262 265 278 294 312 305 293 291 285 303 353 79 134 92 72 65 56 42 41
282 281 281 282 281 276 263 250 241 239 239 239 241 241 238 232 227 227 228 227 225 223 222 219 218 218 216 215 217 214 209 207 205 207 210 212 211 207 207 200 191 192 191 190 190 191 195 193 191 192 180 182 179 158 163 188 217 256 292 220 237 255 236 224 219 239 245 234 260 267 269 275 284 301 300 295 294 291 304 325 347 19 75 52 49 61 45 35
281 280 280 279 280 278 270 255 245 240 238 238 240 241 240 235 230 226 224 225 224 224 222 220 219 218 217 216 217 216 211 206 204 206 209 210 210 209 209 206 198 195 193 192 192 195 198 196 197 192 182 185 181 162 161 187 223 272 264 241 253 270 246 239 230 227 244 245 236 253 263 265 274 287 286 290 294 289 296 302 304 310 295 282 337 48 50 35
278 279 279 278 278 277 273 261 249 241 238 238 238 241 240 236 234 229 223 221 222 223 222 220 219 218 217 215 215 215 211 208 205 204 207 210 210 210 209 208 206 200 193 192 194 199 201 198 199 191 180 186 182 167 168 186 208 242 241 243 258 261 246 263 268 234 238 241 225 245 262 265 271 278 277 279 281 282 283 285 286 288 286 274 274 293 352 17
276 277 277 278 277 276 273 265 252 243 239 238 238 241 241 238 236 232 225 221 221 220 221 221 220 220 219 218 218 215 210 209 207 204 206 210 210 210 209 209 209 202 195 196 198 200 202 197 195 191 179 182 189 180 179 184 196 220 234 249 247 239 252 263 251 231 234 230 232 246 254 264 269 267 274 276 272 277 277 276 277 276 281 279 275 288 303 326
274 274 274 276 277 275 273 267 256 246 241 239 239 240 241 239 237 235 229 225 221 218 219 219 220 221 220 220 220 216 213 213 208 204 206 209 210 209 208 209 205 201 201 202 203 202 202 196 191 192 182 184 197 189 184 192 205 206 202 228 230 213 227 230 231 270 275 235 235 249 246 256 267 264 267 273 270 271 274 274 272 269 273 278 278 281 289 309
271 272 272 272 275 275 273 269 258 248 242 240 239 239 240 239 238 236 232 228 224 219 219 218 219 221 221 221 219 214 215 216 210 206 206 206 210 209 208 208 203 204 205 203 206 200 197 197 193 197 196 187 192 195 187 190 219 211 183 184 220 211 222 241 264 286 273 247 244 248 244 239 254 266 265 265 268 269 270 271 268 266 264 264 267 268 275 289
269 270 270 269 271 272 272 271 260 248 243 240 239 239 240 239 238 237 234 231 227 222 219 218 219 220 220 222 220 215 215 215 212 209 206 205 210 210 208 208 203 204 206 201 205 198 191 200 193 193 203 185 177 204 219 204 216 225 187 167 186 220 230 253 280 289 281 284 270 241 241 245 252 267 264 255 257 266 268 266 265 266 262 258 257 258 265 272
267 268 269 268 267 269 271 270 261 249 243 241 239 239 240 239 238 237 235 233 229 224 221 218 218 219 221 223 220 218 217 215 214 211 207 205 208 209 207 209 204 204 205 200 205 198 190 219 215 193 194 194 183 193 227 222 203 216 212 176 173 204 241 256 266 276 284 285 269 252 265 270 263 262 261 257 256 260 260 259 263 263 261 260 257 257 258 259
266 266 267 266 264 265 268 267 261 252 244 242 241 240 242 240 238 236 235 234 230 227 223 218 216 216 219 221 219 219 219 216 214 212 210 207 207 207 206 206 205 205 202 198 207 200 182 214 238 206 178 202 211 195 210 217 187 185 229 233 197 189 208 238 251 268 279 269 258 270 279 279 272 264 259 261 264 262 255 257 265 264 265 266 264 264 261 258
265 264 265 266 263 261 264 265 260 252 244 241 241 240 241 240 238 236 234 232 231 230 226 220 217 214 217 218 216 216 218 217 216 214 212 210 208 208 207 206 204 206 204 197 205 209 188 197 230 216 172 196 225 206 201 201 173 175 207 230 234 198 192 210 225 250 274 272 247 252 263 267 268 265 263 261 262 260 258 262 267 266 269 272 270 265 262 263
264 263 263 264 262 257 259 261 257 250 243 240 240 239 239 238 236 235 232 227 227 231 230 223 217 215 219 220 215 214 215 214 216 214 211 213 211 207 209 209 201 202 209 200 199 215 207 193 216 229 192 203 225 206 196 192 172 187 199 193 231 240 216 209 202 215 249 256 241 235 248 255 258 266 271 270 265 264 268 267 264 266 267 267 270 267 264 265
264 262 261 263 261 255 254 256 254 247 240 238 239 239 238 236 233 232 231 225 222 230 233 225 218 217 220 222 216 214 215 212 213 213 209 212 214 208 208 208 201 199 203 204 200 207 215 201 204 223 212 211 220 203 196 195 170 179 206 176 172 237 242 216 201 208 228 241 243 235 245 258 265 272 276 278 274 263 254 256 260 268 268 261 264 268 267 265
264 261 259 260 260 255 250 252 250 242 237 236 238 237 234 234 232 228 229 225 218 228 233 225 220 219 219 220 214 212 215 213 213 213 209 210 212 210 209 207 204 201 198 205 205 192 204 226 220 218 212 208 213 205 190 185 182 194 202 183 177 218 242 221 206 221 229 236 242 233 242 256 261 267 278 299 300 274 258 265 273 276 274 263 261 267 267 265
262 260 257 258 259 254 246 247 246 237 234 234 235 234 231 231 230 226 224 217 213 230 236 231 226 222 219 220 214 210 215 213 213 215 212 210 212 212 211 210 209 206 202 204 201 179 178 234 242 229 212 201 196 200 187 177 211 223 206 200 207 219 235 221 213 233 239 240 243 235 236 248 260 271 275 286 285 269 270 280 275 274 274 262 257 266 269 270
259 258 256 255 257 253 243 242 241 234 232 232 233 232 229 229 228 224 218 208 213 231 238 243 239 228 223 222 216 212 215 213 214 217 215 212 214 215 213 214 213 212 209 200 190 182 180 210 233 229 212 201 184 189 204 194 203 217 207 200 208 211 223 225 218 231 241 245 253 251 238 241 257 270 269 269 265 260 271 282 279 276 272 261 260 270 273 275
255 256 255 254 255 251 242 238 236 232 231 231 231 229 228 229 226 219 208 198 201 219 228 246 249 236 227 223 219 217 214 214 217 220 219 215 214 214 213 213 214 211 209 201 192 196 199 206 222 222 206 205 191 184 213 218 209 216 210 194 206 215 218 229 233 237 248 255 264 265 252 245 246 249 251 249 256 263 270 284 284 272 266 272 278 280 278 275
252 253 252 252 253 248 241 236 232 230 230 230 231 229 228 228 222 215 204 189 175 179 215 230 238 239 232 220 219 223 215 213 221 222 220 218 216 214 214 211 210 204 194 196 203 205 212 220 230 224 203 212 206 175 192 227 222 225 219 192 207 230 228 234 238 239 248 255 254 247 243 247 239 236 240 225 225 245 246 242 258 263 272 284 284 282 280 271
249 250 250 250 251 246 240 235 231 230 231 230 231 229 230 228 218 210 200 183 177 197 218 225 223 230 234 219 213 221 215 204 219 227 220 218 218 215 216 213 210 206 191 188 208 207 207 227 242 234 207 216 217 174 175 218 215 226 239 202 195 225 241 249 250 245 246 248 250 243 233 241 247 250 258 247 234 241 246 248 257 264 273 280 280 280 280 272
246 247 248 248 248 244 238 234 231 230 231 231 231 231 230 225 214 201 184 177 193 201 206 221 220 216 224 220 210 213 214 198 209 230 224 220 221 215 217 217 210 211 201 188 204 213 205 215 243 254 233 227 229 187 182 209 195 208 249 232 203 214 218 229 244 251 252 252 255 254 242 244 259 267 266 260 252 251 254 253 254 260 266 271 277 279 277 275
243 244 245 245 246 242 236 234 232 231 232 232 232 231 228 220 211 196 175 174 208 206 196 212 223 215 213 218 212 208 213 205 205 225 225 221 224 216 215 219 210 210 208 188 188 221 232 215 232 257 257 247 241 204 187 200 189 188 219 237 233 224 207 214 231 236 240 246 249 249 246 245 251 256 256 259 263 264 265 258 250 261 271 269 270 276 276 275
241 242 242 243 244 239 235 234 232 231 231 232 232 230 228 219 208 196 181 180 211 209 197 198 213 218 209 209 214 209 213 215 210 221 225 220 226 220 215 219 212 207 206 184 175 201 221 201 213 244 248 236 237 218 194 200 200 188 192 217 235 229 216 223 236 234 223 229 244 246 248 250 245 247 253 260 263 266 275 274 265 273 283 276 269 275 277 275
240 240 240 240 241 238 234 233 232 232 230 232 233 228 226 218 205 199 192 188 207 208 195 183 193 213 206 199 209 210 216 222 215 220 229 222 225 225 217 218 214 205 197 182 180 192 194 180 190 225 231 213 221 232 215 204 208 200 196 207 219 221 224 231 243 245 224 215 236 241 247 254 248 243 248 256 262 267 273 278 279 283 286 283 276 275 277 277
238 240 240 238 237 237 234 232 232 233 231 232 232 225 222 214 201 197 195 195 214 210 195 184 187 203 201 196 205 207 216 227 217 216 230 227 223 226 221 216 212 206 194 185 185 186 181 189 197 210 221 214 215 240 237 206 206 220 213 205 199 209 226 226 232 245 236 220 222 221 242 260 258 255 257 261 266 270 271 273 277 279 279 282 281 278 277 279
237 239 238 234 233 234 233 231 231 232 231 230 229 225 222 215 203 196 198 206 221 208 198 195 194 197 193 189 197 200 210 226 220 211 222 227 222 221 224 219 209 204 201 193 187 176 175 205 219 214 219 217 210 234 243 208 193 215 229 217 201 204 220 219 220 237 242 231 220 216 234 254 259 260 262 264 269 273 274 273 274 276 277 278 279 279 278 280
238 239 236 231 232 234 233 231 230 231 230 228 226 224 220 216 210 201 200 210 221 213 211 209 202 197 188 181 184 191 204 221 226 218 216 222 223 215 218 225 211 200 205 202 192 184 184 195 208 212 218 220 210 222 237 221 197 201 221 228 220 214 219 220 220 234 242 236 230 228 231 246 255 257 259 263 267 270 270 268 269 275 279 280 279 280 282 285
239 239 236 230 230 233 233 231 230 230 230 227 225 224 220 217 215 209 205 210 214 214 221 217 206 200 191 180 176 179 195 214 228 234 222 218 224 215 211 226 214 196 203 211 206 204 202 195 192 200 207 213 214 215 225 230 216 201 203 225 240 237 229 225 224 231 237 231 228 228 229 241 250 253 257 260 259 262 268 270 268 269 274 278 279 280 283 286
239 239 235 228 225 229 231 229 228 227 225 225 223 222 222 219 217 216 215 215 213 208 211 217 211 202 194 187 180 176 185 200 214 234 228 217 222 214 208 222 216 198 201 213 215 213 215 212 204 200 202 208 215 217 215 224 233 223 201 207 233 243 237 232 228 230 235 230 225 224 227 238 245 248 254 258 257 258 265 273 275 271 270 272 273 278 282 284
239 240 234 226 221 225 229 226 224 224 221 219 217 217 218 217 219 226 224 220 218 213 206 204 210 207 199 193 185 180 184 190 194 211 223 217 218 213 209 220 225 208 202 209 213 210 215 223 220 214 211 207 209 222 223 215 231 242 221 201 206 220 232 237 235 233 238 242 244 248 251 250 248 248 252 257 261 263 262 266 271 272 272 271 271 275 283 286
239 239 232 222 216 219 224 224 222 223 222 220 217 214 211 208 216 231 231 224 221 221 212 196 196 210 210 204 197 189 187 186 182 185 206 211 211 213 212 216 227 221 208 208 213 208 209 221 224 227 228 213 200 212 226 218 218 230 234 220 209 209 217 227 233 237 241 248 253 259 266 268 261 256 256 259 263 266 263 258 260 266 270 275 277 276 280 286
238 240 233 222 214 213 215 217 219 221 223 224 223 220 215 210 211 225 234 232 227 225 221 208 199 201 205 216 218 201 189 186 181 177 191 203 203 213 217 212 218 224 215 210 215 216 211 211 217 228 235 228 211 202 205 219 228 228 231 232 227 225 223 222 226 232 238 244 247 247 254 262 261 257 257 257 255 255 257 259 266 271 273 279 286 285 286 290
237 242 237 225 219 217 215 215 216 217 218 221 223 224 221 218 217 221 226 232 230 224 220 217 211 202 197 208 224 209 194 189 186 182 187 196 197 205 212 210 213 222 219 207 211 224 219 210 216 227 230 234 229 209 198 209 231 233 230 231 232 235 235 231 227 227 233 243 248 248 251 256 256 254 252 254 255 256 259 265 274 277 277 283 290 292 293 294
235 240 238 226 219 220 220 218 217 216 216 219 222 223 221 219 220 220 217 221 226 221 218 219 217 210 203 205 222 220 206 197 194 192 192 193 196 202 205 205 209 220 223 210 206 221 222 212 215 223 224 229 237 229 217 214 220 228 230 232 236 240 242 242 237 233 236 242 245 246 249 253 257 258 253 252 257 260 260 263 268 274 281 287 291 294 296 297
235 239 239 227 217 215 216 216 218 217 216 219 221 222 222 218 217 216 213 217 221 215 216 220 217 213 209 205 215 226 219 208 203 202 200 193 194 203 205 200 200 209 220 220 215 222 228 222 218 220 221 222 222 228 232 229 227 231 231 230 235 238 239 241 240 238 241 243 243 244 245 248 254 257 255 253 253 254 257 261 265 270 277 282 285 290 293 294
235 238 239 229 217 215 215 214 217 219 219 222 225 226 226 224 221 219 216 220 223 217 214 219 217 212 208 206 210 219 220 216 209 207 208 199 191 199 208 205 200 202 209 220 220 218 223 229 226 222 228 232 226 225 238 242 237 232 227 229 237 234 227 230 238 243 246 247 247 248 248 246 247 250 254 255 252 254 261 266 266 271 277 281 285 289 290 290
Height
5896 5897 5898 5899 5900 5901 5902 5903 5904 5904 5905 5906 5907 5908 5908 5909 5909 5910 5910 5911 5911 5911 5911 5911 5912 5912 5912 5912 5912 5912 5912 5912 5912 5912 5913 5913 5913 5913 5914 5915 5915 5916 5916 5917 5918 5919 5920 5921 5921 5922 5923 5924 5925 5924 5926 5927 5926 5926 5931 5936 5937 5936 5934 5931 5928 5927 5927 5926 5926 5925 5925 5924 5924 5923 5923 5922 5921 5921 5921 5921 5921 5920 5920 5920 5919 5919 5919 5919
5894 5895 5896 5897 5898 5899 5900 5901 5902 5903 5904 5905 5906 5907 5907 5908 5908 5909 5910 5910 5910 5911 5911 5911 5911 5912 5912 5912 5912 5912 5912 5912 5912 5912 5912 5912 5913 5913 5914 5915 5915 5916 5916 5917 5918 5919 5919 5920 5922 5923 5923 5925 5926 5926 5927 5929 5928 5929 5933 5936 5935 5934 5933 5931 5929 5928 5927 5926 5926 5926 5925 5925 5924 5923 5924 5923 5922 5922 5922 5922 5922 5921 5921 5920 5920 5920 5919 5920
5893 5893 5894 5895 5896 5897 5898 5899 5900 5901 5902 5903 5904 5905 5906 5907 5907 5908 5909 5909 5910 5910 5911 5911 5911 5911 5911 5912 5912 5912 5912 5912 5912 5912 5912 5912 5912 5913 5914 5914 5915 5916 5916 5917 5917 5918 5918 5919 5920 5923 5923 5924 5927 5929 5930 5931 5931 5933 5936 5937 5934 5932 5931 5931 5930 5929 5928 5926 5926 5926 5925 5925 5924 5923 5924 5924 5922 5922 5922 5923 5923 5922 5922 5921 5921 5921 5921 5921
5891 5891 5892 5892 5893 5894 5895 5897 5898 5899 5900 5901 5902 5904 5905 5906 5906 5907 5908 5908 5909 5910 5910 5911 5911 5911 5911 5912 5912 5912 5912 5912 5912 5912 5912 5912 5912 5913 5914 5914 5915 5916 5917 5917 5918 5918 5919 5920 5920 5922 5924 5924 5930 5933 5933 5933 5933 5935 5936 5935 5934 5932 5931 5931 5930 5929 5928 5927 5926 5926 5926 5925 5925 5923 5924 5924 5923 5923 5923 5923 5923 5923 5923 5922 5922 5922 5922 5922
5888 5889 5890 5890 5891 5892 5893 5894 5895 5897 5898 5899 5900 5902 5903 5904 5905 5906 5906 5907 5908 5909 5909 5910 5910 5911 5911 5911 5912 5912 5912 5912 5912 5912 5912 5912 5912 5913 5914 5914 5915 5916 5917 5917 5918 5919 5920 5922 5921 5923 5925 5926 5933 5935 5935 5936 5935 5936 5935 5933 5933 5932 5931 5930 5930 5929 5928 5927 5927 5927 5926 5925 5926 5924 5924 5925 5925 5924 5923 5923 5924 5924 5924 5923 5923 5923 5923 5923
5886 5887 5888 5888 5889 5890 5890 5892 5893 5894 5896 5897 5898 5900 5901 5902 5903 5904 5905 5906 5907 5908 5908 5909 5910 5910 5911 5911 5911 5912 5912 5912 5912 5912 5912 5912 5912 5913 5913 5914 5915 5916 5917 5917 5918 5919 5920 5922 5923 5924 5925 5929 5935 5936 5938 5938 5936 5936 5934 5933 5933 5931 5931 5930 5929 5929 5928 5928 5928 5928 5927 5926 5926 5925 5925 5926 5926 5925 5923 5924 5924 5925 5925 5924 5924 5924 5924 5924
5883 5884 5885 5886 5887 5887 5888 5889 5890 5892 5893 5895 5896 5897 5899 5900 5901 5902 5903 5904 5905 5906 5907 5908 5909 5909 5910 5910 5911 5911 5912 5912 5912 5912 5912 5912 5912 5913 5913 5914 5915 5916 5917 5918 5918 5920 5920 5922 5924 5923 5926 5932 5937 5938 5938 5937 5936 5936 5934 5933 5932 5931 5931 5930 5930 5929 5929 5929 5928 5928 5928 5927 5926 5925 5926 5926 5925 5924 5924 5924 5925 5925 5925 5925 5925 5925 5925 5925
5880 5881 5882 5883 5884 5885 5886 5886 5887 5889 5890 5892 5893 5895 5896 5898 5899 5900 5901 5903 5904 5904 5905 5906 5908 5908 5909 5910 5910 5911 5911 5912 5912 5912 5912 5912 5912 5913 5913 5914 5915 5916 5917 5918 5918 5919 5920 5922 5925 5924 5928 5935 5940 5940 5937 5937 5937 5934 5933 5933 5931 5931 5931 5930 5930 5930 5929 5929 5929 5929 5928 5928 5928 5926 5926 5926 5925 5925 5925 5925 5925 5925 5926 5925 5925 5925 5925 5925
5877 5878 5879 5880 5881 5882 5883 5884 5885 5886 5887 5889 5891 5892 5894 5895 5897 5898 5899 5901 5902 5903 5904 5905 5906 5907 5908 5909 5910 5910 5911 5911 5912 5912 5912 5912 5912 5912 5913 5914 5915 5916 5916 5917 5918 5919 5920 5922 5924 5926 5931 5935 5939 5939 5935 5938 5938 5934 5933 5932 5931 5931 5930 5930 5930 5930 5930 5929 5929 5929 5928 5929 5929 5928 5927 5926 5926 5926 5926 5926 5926 5926 5926 5926 5925 5925 5925 5925
5874 5875 5876 5877 5878 5879 5879 5881 5882 5883 5884 5886 5887 5889 5891 5893 5894 5896 5897 5898 5899 5901 5902 5903 5904 5906 5907 5908 5909 5910 5910 5911 5911 5912 5912 5912 5912 5912 5913 5913 5914 5915 5916 5917 5919 5919 5920 5921 5925 5928 5932 5934 5936 5937 5935 5937 5936 5933 5934 5932 5931 5932 5930 5930 5930 5930 5930 5930 5930 5929 5929 5929 5929 5930 5929 5927 5926 5926 5926 5926 5926 5926 5926 5926 5926 5925 5925 5925
5871 5871 5872 5874 5875 5876 5876 5877 5879 5880 5882 5883 5884 5886 5888 5890 5892 5893 5895 5896 5897 5898 5899 5901 5902 5904 5905 5906 5908 5909 5910 5910 5911 5912 5912 5911 5912 5912 5913 5913 5914 5915 5916 5917 5918 5918 5917 5920 5926 5930 5933 5933 5934 5937 5935 5935 5934 5932 5933 5932 5931 5931 5931 5931 5930 5930 5930 5930 5930 5929 5930 5930 5929 5930 5930 5928 5928 5927 5926 5926 5926 5926 5927 5926 5926 5926 5926 5926
5868 5869 5869 5870 5871 5872 5873 5874 5875 5877 5878 5880 5881 5883 5885 5886 5889 5890 5892 5894 5895 5896 5897 5899 5900 5902 5904 5905 5907 5908 5908 5909 5910 5911 5911 5911 5911 5912 5912 5913 5914 5915 5916 5917 5917 5918 5917 5918 5922 5926 5931 5933 5936 5938 5935 5935 5935 5932 5932 5932 5932 5932 5931 5931 5931 5930 5930 5930 5930 5930 5930 5930 5930 5930 5930 5929 5929 5928 5927 5927 5927 5927 5927 5927 5926 5926 5927 5927
5866 5866 5866 5867 5868 5869 5870 5871 5872 5873 5875 5876 5878 5880 5881 5883 5885 5887 5890 5891 5892 5893 5895 5896 5898 5900 5901 5903 5906 5906 5907 5908 5909 5910 5911 5911 5911 5911 5912 5912 5913 5914 5915 5916 5917 5918 5919 5918 5918 5921 5926 5930 5935 5936 5935 5935 5934 5932 5932 5932 5932 5932 5932 5932 5932 5931 5930 5930 5930 5930 5930 5930 5930 5930 5930 5929 5929 5929 5927 5927 5927 5927 5928 5927 5927 5927 5927 5927
5864 5864 5863 5864 5864 5865 5866 5868 5869 5870 5871 5872 5874 5877 5879 5880 5882 5884 5887 5889 5890 5891 5892 5894 5896 5898 5899 5902 5904 5904 5905 5907 5908 5909 5910 5910 5910 5911 5911 5912 5913 5913 5915 5915 5916 5918 5919 5919 5918 5920 5923 5928 5933 5933 5935 5936 5933 5932 5933 5932 5932 5933 5932 5932 5932 5932 5931 5931 5930 5931 5930 5930 5931 5930 5930 5930 5930 5930 5927 5927 5927 5927 5928 5928 5928 5928 5928 5928
5862 5862 5861 5861 5861 5862 5863 5864 5865 5867 5868 5869 5870 5872 5875 5877 5878 5881 5883 5885 5887 5888 5890 5891 5893 5896 5897 5900 5901 5901 5903 5905 5906 5907 5908 5909 5910 5910 5910 5911 5912 5913 5914 5915 5916 5917 5918 5919 5920 5920 5922 5927 5932 5932 5934 5935 5933 5933 5932 5931 5932 5932 5932 5932 5932 5932 5932 5932 5931 5931 5930 5930 5931 5931 5931 5930 5930 5929 5927 5928 5928 5928 5928 5928 5928 5928 5928 5928
5860 5859 5859 5858 5858 5859 5859 5860 5862 5863 5865 5866 5867 5869 5871 5873 5875 5877 5880 5882 5884 5886 5887 5889 5891 5893 5895 5898 5899 5900 5902 5903 5905 5906 5907 5908 5908 5909 5909 5910 5911 5912 5913 5914 5916 5916 5917 5919 5920 5919 5920 5923 5928 5929 5933 5933 5932 5933 5931 5932 5932 5930 5932 5932 5932 5932 5932 5932 5931 5931 5930 5930 5930 5931 5931 5930 5929 5928 5928 5929 5928 5928 5928 5928 5928 5928 5928 5928
5858 5857 5857 5856 5856 5856 5856 5857 5858 5860 5861 5863 5864 5866 5867 5869 5871 5874 5876 5879 5881 5883 5885 5886 5889 5891 5893 5896 5895 5896 5900 5902 5903 5904 5905 5907 5907 5908 5908 5909 5911 5911 5912 5914 5915 5916 5916 5917 5918 5919 5919 5922 5925 5928 5933 5933 5932 5933 5932 5933 5932 5930 5932 5933 5932 5932 5931 5931 5931 5931 5931 5930 5930 5930 5930 5930 5930 5929 5929 5930 5929 5928 5928 5928 5928 5928 5928 5928
5856 5855 5854 5854 5853 5853 5853 5854 5855 5856 5858 5860 5861 5863 5864 5865 5867 5869 5872 5875 5878 5880 5881 5884 5886 5888 5889 5891 5890 5893 5897 5899 5901 5903 5904 5905 5905 5906 5907 5908 5910 5910 5911 5913 5914 5915 5916 5917 5918 5918 5919 5921 5923 5926 5932 5934 5933 5932 5931 5933 5933 5931 5932 5932 5932 5931 5931 5931 5930 5931 5931 5929 5929 5929 5929 5929 5930 5929 5928 5929 5929 5928 5927 5927 5928 5928 5928 5928
5853 5853 5852 5851 5851 5850 5850 5850 5852 5853 5854 5856 5858 5859 5861 5862 5863 5865 5868 5872 5875 5876 5878 5880 5882 5884 5887 5889 5891 5892 5894 5896 5899 5901 5902 5903 5904 5905 5906 5907 5908 5909 5910 5911 5913 5914 5915 5916 5916 5917 5918 5920 5922 5924 5929 5935 5935 5933 5933 5935 5935 5933 5932 5930 5931 5931 5930 5930 5929 5929 5930 5929 5929 5929 5929 5929 5928 5928 5927 5927 5928 5927 5927 5927 5927 5928 5928 5928
5850 5850 5849 5849 5848 5848 5847 5847 5848 5849 5851 5853 5855 5856 5857 5859 5859 5860 5863 5868 5871 5873 5875 5877 5879 5882 5885 5886 5888 5889 5891 5894 5896 5898 5900 5901 5902 5903 5904 5905 5906 5908 5909 5910 5911 5912 5914 5915 5915 5916 5917 5920 5922 5923 5928 5935 5937 5935 5937 5938 5934 5934 5933 5930 5931 5932 5931 5931 5930 5929 5929 5929 5929 5929 5929 5928 5928 5928 5927 5927 5927 5927 5927 5927 5927 5927 5928 5928
5847 5847 5846 5846 5846 5845 5845 5845 5845 5846 5848 5849 5851 5852 5853 5855 5856 5856 5861 5864 5866 5869 5872 5874 5876 5878 5880 5881 5883 5885 5889 5892 5893 5896 5897 5898 5900 5901 5902 5904 5905 5906 5908 5909 5910 5911 5912 5913 5915 5916 5917 5920 5922 5923 5927 5933 5937 5939 5940 5938 5935 5935 5935 5931 5931 5931 5931 5932 5930 5929 5929 5928 5928 5928 5928 5928 5928 5927 5927 5927 5927 5927 5927 5928 5927 5927 5927 5927
5844 5844 5843 5843 5843 5843 5842 5842 5842 5843 5845 5846 5848 5849 5850 5852 5853 5854 5858 5859 5861 5865 5868 5871 5874 5875 5877 5880 5881 5884 5888 5890 5891 5893 5895 5896 5898 5899 5901 5902 5904 5905 5906 5907 5908 5909 5911 5912 5914 5916 5917 5920 5922 5923 5926 5930 5936 5939 5939 5939 5937 5937 5937 5934 5932 5931 5931 5931 5930 5929 5929 5927 5927 5927 5927 5928 5928 5927 5927 5927 5927 5927 5926 5927 5927 5926 5926 5926
5842 5841 5841 5840 5840 5840 5840 5839 5839 5840 5841 5843 5844 5845 5847 5849 5850 5852 5855 5856 5858 5861 5863 5866 5870 5871 5875 5877 5879 5884 5887 5886 5888 5891 5892 5894 5896 5897 5899 5900 5902 5904 5904 5905 5906 5908 5910 5912 5913 5915 5916 5919 5922 5923 5924 5928 5931 5933 5936 5938 5937 5937 5938 5935 5931 5931 5931 5930 5929 5929 5928 5927 5926 5927 5927 5927 5927 5927 5926 5926 5926 5926 5925 5926 5926 5926 5926 5926
5838 5838 5838 5837 5837 5837 5837 5837 5837 5837 5838 5839 5841 5842 5844 5846 5847 5849 5851 5853 5855 5858 5860 5863 5866 5868 5872 5874 5877 5881 5883 5883 5886 5888 5890 5892 5893 5895 5897 5898 5900 5901 5902 5904 5906 5907 5910 5911 5913 5914 5915 5917 5921 5923 5923 5926 5928 5928 5930 5934 5936 5938 5938 5934 5930 5931 5932 5931 5929 5928 5927 5927 5925 5925 5927 5926 5926 5926 5925 5925 5925 5925 5925 5925 5925 5925 5925 5925
5835 5835 5835 5834 5835 5834 5834 5835 5835 5834 5834 5835 5837 5839 5840 5843 5844 5845 5848 5850 5853 5856 5858 5860 5862 5865 5869 5871 5874 5878 5879 5881 5884 5885 5888 5890 5891 5893 5895 5896 5898 5899 5901 5903 5904 5906 5908 5909 5910 5912 5915 5916 5919 5924 5924 5924 5927 5927 5927 5928 5934 5939 5937 5933 5929 5929 5931 5930 5929 5928 5927 5926 5925 5925 5926 5925 5925 5925 5924 5924 5924 5924 5924 5924 5924 5924 5923 5924
5831 5832 5831 5831 5832 5831 5831 5832 5832 5831 5831 5832 5834 5836 5838 5840 5840 5842 5845 5847 5851 5854 5854 5856 5860 5863 5866 5869 5872 5875 5876 5878 5881 5883 5886 5887 5888 5891 5892 5894 5896 5897 5899 5901 5902 5904 5906 5909 5909 5910 5914 5915 5917 5921 5923 5922 5924 5927 5928 5927 5931 5936 5937 5936 5930 5927 5930 5930 5928 5926 5926 5925 5924 5924 5925 5924 5924 5924 5923 5922 5923 5923 5923 5923 5923 5923 5923 5922
5828 5828 5828 5828 5828 5829 5829 5829 5829 5828 5828 5830 5832 5834 5835 5836 5837 5839 5842 5845 5848 5850 5851 5854 5857 5860 5863 5864 5867 5870 5872 5876 5879 5881 5883 5884 5886 5888 5889 5891 5893 5895 5897 5899 5900 5901 5904 5908 5909 5908 5911 5915 5916 5917 5919 5920 5921 5925 5929 5928 5928 5931 5935 5939 5934 5928 5929 5931 5929 5927 5924 5924 5922 5922 5924 5922 5922 5923 5922 5921 5921 5921 5922 5922 5923 5923 5922 5922
5824 5824 5825 5824 5825 5826 5826 5826 5827 5825 5826 5828 5829 5831 5832 5833 5835 5837 5839 5843 5845 5846 5849 5852 5855 5857 5858 5858 5862 5867 5870 5873 5876 5878 5881 5883 5884 5885 5887 5889 5891 5893 5894 5896 5898 5900 5903 5906 5907 5907 5909 5913 5915 5915 5916 5918 5919 5923 5927 5927 5926 5927 5930 5934 5934 5930 5929 5929 5930 5929 5925 5924 5923 5921 5921 5921 5920 5920 5920 5919 5919 5920 5921 5921 5921 5921 5921 5922
5820 5821 5821 5821 5821 5823 5823 5823 5824 5822 5824 5826 5826 5828 5829 5830 5832 5834 5837 5840 5842 5844 5847 5851 5854 5855 5853 5854 5860 5865 5866 5870 5872 5875 5879 5880 5881 5883 5885 5887 5890 5892 5893 5894 5898 5900 5901 5903 5906 5907 5909 5911 5912 5912 5915 5917 5918 5921 5923 5923 5925 5926 5926 5928 5929 5930 5931 5927 5927 5929 5926 5924 5924 5920 5917 5919 5919 5918 5918 5917 5918 5920 5920 5919 5919 5919 5919 5920
5816 5817 5818 5818 5817 5819 5819 5819 5820 5820 5821 5822 5823 5825 5826 5827 5829 5831 5833 5837 5842 5843 5844 5848 5852 5851 5851 5853 5860 5862 5863 5866 5868 5871 5874 5876 5878 5880 5882 5884 5886 5889 5891 5892 5895 5898 5900 5901 5903 5905 5907 5908 5909 5910 5913 5915 5917 5920 5923 5923 5925 5926 5922 5922 5924 5924 5926 5925 5924 5927 5925 5923 5922 5920 5916 5916 5917 5917 5917 5916 5917 5917 5917 5917 5917 5917 5918 5919
5811 5812 5814 5814 5814 5816 5816 5816 5817 5818 5818 5819 5821 5822 5823 5824 5826 5828 5830 5835 5842 5841 5840 5845 5848 5848 5850 5852 5857 5859 5860 5863 5864 5866 5870 5872 5874 5876 5878 5880 5882 5885 5888 5890 5892 5895 5899 5900 5900 5901 5903 5905 5907 5909 5910 5914 5916 5918 5920 5922 5923 5924 5920 5919 5922 5921 5921 5922 5922 5924 5925 5922 5921 5920 5917 5915 5913 5912 5913 5914 5913 5913 5913 5914 5915 5915 5916 5917
5807 5808 5811 5811 5811 5812 5812 5812 5814 5815 5815 5816 5817 5818 5820 5821 5822 5825 5829 5835 5840 5838 5839 5844 5844 5846 5850 5851 5854 5857 5857 5860 5862 5862 5866 5869 5870 5873 5875 5878 5880 5883 5884 5888 5891 5893 5898 5901 5898 5898 5900 5902 5905 5908 5909 5913 5916 5915 5917 5920 5920 5920 5920 5919 5921 5921 5919 5920 5920 5922 5924 5922 5919 5920 5918 5917 5914 5911 5911 5912 5911 5910 5910 5912 5913 5914 5914 5915
5802 5804 5806 5807 5808 5808 5808 5809 5810 5811 5811 5813 5814 5815 5816 5816 5818 5823 5829 5834 5838 5838 5841 5843 5842 5846 5849 5849 5852 5854 5855 5858 5859 5860 5864 5867 5869 5872 5875 5877 5879 5882 5884 5887 5890 5891 5895 5897 5894 5895 5898 5899 5902 5907 5909 5911 5912 5912 5913 5916 5916 5917 5918 5918 5918 5919 5918 5918 5919 5919 5920 5919 5919 5919 5917 5918 5917 5913 5912 5910 5908 5908 5908 5909 5910 5911 5912 5912
5798 5800 5802 5803 5804 5804 5804 5805 5806 5807 5808 5809 5810 5811 5812 5812 5816 5823 5828 5832 5836 5840 5843 5843 5842 5843 5845 5847 5850 5851 5853 5856 5857 5859 5861 5864 5866 5868 5871 5874 5876 5881 5884 5886 5888 5889 5891 5892 5891 5893 5897 5897 5898 5904 5909 5909 5908 5908 5909 5912 5915 5916 5916 5916 5916 5917 5917 5917 5918 5918 5917 5917 5918 5917 5916 5917 5916 5912 5910 5909 5906 5906 5907 5907 5908 5908 5909 5909
5794 5796 5798 5800 5800 5800 5800 5802 5802 5803 5805 5805 5806 5806 5807 5810 5816 5822 5825 5829 5835 5841 5844 5843 5841 5840 5841 5845 5848 5849 5852 5855 5855 5856 5858 5860 5863 5865 5868 5871 5874 5878 5881 5884 5887 5888 5890 5891 5891 5893 5895 5895 5896 5901 5907 5909 5907 5907 5908 5909 5913 5915 5914 5914 5914 5916 5917 5917 5917 5917 5916 5916 5915 5913 5913 5915 5913 5909 5910 5910 5906 5905 5905 5906 5906 5906 5907 5907
5789 5791 5794 5796 5796 5796 5797 5798 5799 5800 5801 5801 5801 5802 5804 5809 5816 5820 5824 5829 5834 5839 5841 5842 5841 5840 5840 5843 5845 5847 5850 5854 5854 5853 5855 5857 5860 5863 5866 5869 5873 5875 5877 5882 5885 5887 5890 5892 5890 5891 5893 5893 5895 5899 5903 5905 5906 5905 5905 5906 5910 5915 5915 5914 5914 5914 5914 5915 5914 5914 5914 5913 5911 5910 5910 5911 5911 5909 5909 5910 5906 5904 5904 5904 5904 5904 5905 5904
5785 5787 5790 5792 5792 5792 5793 5794 5795 5796 5797 5797 5797 5799 5804 5809 5814 5818 5822 5827 5832 5834 5836 5838 5839 5840 5840 5841 5843 5845 5848 5852 5852 5850 5853 5855 5857 5861 5864 5866 5871 5873 5875 5880 5885 5887 5890 5893 5890 5888 5891 5893 5893 5896 5899 5901 5904 5905 5905 5905 5907 5911 5912 5911 5913 5913 5912 5912 5912 5912 5912 5911 5910 5909 5907 5906 5906 5906 5907 5908 5905 5903 5903 5904 5902 5900 5902 5901
5781 5783 5786 5787 5787 5788 5789 5790 5791 5792 5793 5793 5794 5797 5802 5806 5811 5815 5817 5822 5829 5832 5832 5835 5837 5838 5841 5841 5842 5844 5846 5849 5849 5849 5852 5853 5854 5858 5862 5864 5868 5871 5874 5878 5884 5887 5889 5893 5892 5885 5888 5892 5891 5892 5895 5897 5900 5902 5905 5907 5907 5906 5907 5908 5910 5910 5909 5910 5911 5911 5910 5910 5910 5907 5903 5902 5903 5902 5902 5903 5904 5901 5901 5902 5901 5899 5899 5898
5776 5779 5781 5782 5783 5784 5785 5785 5787 5788 5788 5789 5792 5796 5801 5804 5808 5812 5813 5815 5821 5825 5826 5830 5834 5836 5838 5840 5843 5845 5845 5846 5848 5849 5850 5852 5853 5856 5859 5863 5865 5870 5874 5875 5879 5884 5885 5889 5891 5885 5885 5890 5888 5888 5891 5893 5895 5898 5901 5905 5905 5905 5906 5907 5906 5906 5906 5907 5908 5909 5908 5907 5907 5904 5900 5899 5900 5900 5899 5899 5901 5901 5899 5899 5900 5899 5897 5896
5772 5774 5775 5778 5780 5780 5781 5782 5783 5784 5785 5787 5791 5795 5799 5802 5806 5809 5810 5811 5815 5818 5820 5825 5830 5833 5835 5838 5842 5845 5844 5845 5848 5849 5849 5851 5853 5855 5857 5861 5863 5868 5872 5873 5875 5880 5882 5885 5888 5885 5885 5889 5887 5884 5888 5892 5894 5895 5896 5899 5901 5903 5904 5905 5904 5903 5904 5906 5906 5908 5907 5904 5902 5901 5898 5897 5898 5899 5899 5897 5897 5899 5898 5896 5897 5897 5895 5894
5768 5770 5770 5773 5776 5776 5776 5778 5779 5781 5783 5786 5789 5793 5795 5798 5802 5806 5807 5808 5811 5815 5817 5819 5823 5827 5830 5834 5840 5845 5845 5844 5846 5848 5849 5849 5852 5854 5855 5858 5862 5866 5870 5871 5871 5876 5880 5884 5885 5883 5883 5886 5887 5884 5885 5890 5894 5896 5895 5895 5898 5902 5903 5902 5902 5901 5901 5903 5903 5906 5906 5900 5896 5898 5896 5895 5896 5896 5897 5897 5895 5895 5896 5896 5894 5894 5893 5891
5763 5763 5764 5768 5771 5771 5772 5774 5776 5778 5780 5783 5787 5789 5792 5794 5797 5800 5802 5805 5807 5811 5815 5816 5816 5818 5822 5826 5832 5840 5844 5844 5843 5846 5848 5848 5851 5853 5855 5857 5860 5864 5867 5868 5869 5873 5877 5881 5883 5883 5881 5883 5887 5887 5884 5885 5891 5895 5896 5894 5895 5898 5899 5900 5901 5900 5899 5900 5901 5903 5904 5898 5893 5895 5893 5891 5894 5893 5892 5894 5893 5890 5892 5894 5893 5892 5891 5890
5758 5758 5759 5764 5767 5768 5769 5771 5773 5775 5777 5781 5784 5786 5788 5790 5793 5795 5798 5802 5805 5808 5811 5812 5813 5815 5816 5820 5825 5833 5841 5844 5842 5843 5846 5848 5850 5852 5854 5855 5857 5861 5865 5866 5869 5871 5873 5875 5878 5880 5881 5882 5885 5886 5884 5882 5884 5888 5892 5892 5891 5893 5895 5897 5899 5899 5898 5899 5899 5901 5901 5895 5891 5892 5890 5890 5893 5891 5887 5889 5891 5888 5887 5890 5890 5889 5888 5887
5753 5754 5755 5760 5763 5764 5765 5768 5770 5773 5775 5778 5780 5782 5784 5786 5789 5792 5795 5797 5800 5803 5805 5807 5810 5814 5816 5818 5820 5825 5834 5840 5841 5841 5844 5846 5848 5850 5853 5855 5855 5860 5864 5866 5867 5869 5871 5871 5872 5874 5878 5881 5881 5881 5882 5882 5880 5881 5886 5889 5889 5890 5891 5893 5896 5895 5895 5896 5896 5897 5897 5892 5888 5889 5888 5888 5891 5889 5883 5884 5887 5886 5885 5886 5887 5886 5885 5885
5748 5749 5750 5754 5758 5760 5761 5765 5768 5770 5772 5774 5776 5778 5781 5783 5786 5789 5790 5791 5793 5797 5801 5804 5807 5811 5814 5816 5817 5818 5824 5832 5837 5839 5841 5843 5846 5849 5852 5854 5853 5857 5862 5864 5865 5866 5867 5869 5869 5870 5872 5875 5876 5877 5878 5880 5879 5878 5881 5885 5888 5890 5890 5890 5892 5892 5892 5892 5892 5893 5893 5888 5886 5886 5886 5885 5887 5887 5884 5882 5882 5882 5883 5884 5884 5883 5883 5882
5743 5745 5746 5750 5753 5755 5757 5761 5764 5765 5767 5769 5771 5774 5777 5780 5783 5785 5785 5786 5790 5792 5795 5800 5805 5809 5811 5813 5816 5816 5818 5822 5829 5834 5838 5841 5844 5846 5850 5851 5851 5853 5857 5859 5859 5861 5864 5865 5866 5866 5867 5871 5874 5876 5878 5879 5879 5878 5879 5881 5884 5888 5889 5889 5889 5888 5889 5888 5888 5888 5887 5885 5884 5885 5883 5882 5883 5883 5883 5881 5879 5879 5880 5881 5881 5881 5880 5879
5738 5739 5740 5743 5746 5749 5753 5757 5760 5761 5763 5764 5767 5769 5772 5776 5782 5782 5780 5782 5786 5789 5791 5794 5800 5806 5809 5811 5813 5814 5815 5818 5822 5827 5832 5838 5842 5845 5847 5850 5850 5849 5850 5852 5854 5858 5860 5860 5861 5863 5864 5866 5869 5873 5876 5877 5877 5877 5878 5879 5880 5882 5884 5886 5886 5886 5886 5886 5885 5885 5884 5882 5882 5882 5880 5880 5880 5879 5878 5878 5878 5878 5878 5877 5877 5878 5878 5877
5732 5733 5735 5737 5740 5743 5747 5751 5755 5757 5759 5762 5764 5766 5767 5771 5775 5777 5776 5778 5781 5784 5787 5789 5792 5798 5804 5808 5810 5810 5812 5816 5819 5822 5827 5833 5839 5842 5845 5847 5847 5844 5845 5849 5851 5853 5854 5855 5859 5862 5862 5862 5863 5866 5869 5872 5874 5875 5875 5877 5878 5878 5879 5880 5881 5884 5885 5883 5883 5883 5882 5880 5880 5879 5878 5877 5877 5875 5873 5874 5876 5876 5875 5874 5873 5873 5874 5874
5728 5729 5731 5735 5738 5740 5742 5745 5748 5751 5754 5756 5759 5761 5763 5766 5768 5770 5773 5775 5776 5778 5782 5785 5788 5792 5797 5801 5803 5805 5808 5811 5812 5815 5819 5824 5829 5833 5836 5840 5842 5839 5840 5845 5848 5848 5849 5852 5856 5858 5858 5858 5860 5862 5865 5867 5870 5872 5872 5874 5875 5876 5877 5876 5877 5880 5881 5881 5881 5881 5880 5878 5877 5877 5876 5874 5873 5872 5871 5873 5874 5873 5872 5872 5871 5869 5869 5869
5722 5723 5726 5731 5734 5737 5740 5742 5744 5747 5750 5752 5754 5756 5758 5761 5763 5766 5769 5771 5772 5774 5777 5780 5784 5789 5792 5796 5798 5800 5804 5806 5807 5808 5810 5814 5818 5821 5825 5832 5836 5836 5836 5839 5842 5843 5844 5847 5851 5852 5854 5856 5859 5862 5862 5862 5864 5867 5868 5869 5872 5873 5874 5874 5875 5876 5877 5878 5879 5878 5877 5874 5873 5872 5872 5871 5870 5868 5868 5870 5871 5870 5869 5869 5869 5868 5866 5864
5717 5718 5721 5725 5728 5731 5734 5737 5740 5743 5746 5747 5748 5750 5753 5757 5760 5762 5764 5765 5767 5770 5772 5775 5779 5782 5786 5790 5793 5795 5797 5799 5802 5804 5806 5809 5812 5816 5820 5825 5829 5832 5833 5834 5838 5840 5840 5843 5846 5847 5849 5852 5855 5857 5858 5859 5861 5862 5862 5866 5869 5871 5872 5872 5872 5873 5874 5874 5874 5873 5872 5871 5869 5867 5866 5866 5865 5864 5864 5867 5867 5867 5867 5866 5866 5866 5864 5862
5712 5713 5716 5720 5724 5726 5728 5732 5735 5739 5742 5744 5745 5747 5750 5754 5756 5757 5759 5760 5762 5766 5768 5769 5771 5775 5780 5783 5784 5785 5786 5789 5796 5802 5805 5808 5810 5813 5817 5819 5821 5825 5829 5830 5833 5835 5836 5838 5840 5842 5844 5846 5848 5853 5856 5857 5855 5855 5858 5863 5865 5866 5866 5868 5869 5871 5870 5868 5868 5867 5866 5865 5864 5862 5860 5861 5861 5860 5861 5862 5863 5864 5864 5863 5862 5862 5861 5860